Location: Barrialito
(10.1025°N, 66.8154°W)
Time: 14:43:25
(UTC+00:00)

Orbus 7S - Pass Details

Date: 10 September 2024
Orbit: 386 x 13998 km, 27.4° (Epoch: 09 October)

Event Time Altitude Azimuth Distance (km) Brightness Sun altitude
Rises 23:06:18 0° 304° (WNW) 4,129 9.0 -9.6°
Reaches altitude 10° 23:10:30 10° 317° (NW) 2,188 7.1 -10.6°
Maximum altitude 23:13:55 23° 13° (NNE) 1,016 4.6 -11.5°
Enters shadow 23:15:34 15° 61° (ENE) 1,203 4.6 -11.9°
